Content
SEND FEEDBACK

Daily
Averages
Monthly
Summary
United States of America

COLONIAL BEACH, VIRGINIA


Home > North America > United States > Virginia
Elevation: 0 feet     Latitude: 38 15N     Longitude: 076 58W

WEATHER
 
SELECT A DAY
Number of Records: 193,274;   Date Range: 12/4/06 - 11/22/14
 
SHARE

PRINT THIS DATA

[ ← Previous Day ]
WEATHER ALMANAC - FEBRUARY 13, 2013
[ Next Day → ]
[ °C ]   °F
Weather ElementAverageHighLow
Temperature38.9 °F42.8 °F (11:47 am)35.6 °F (6:47 am)
Dewpoint32.6 °F37.4 °F (6:48 pm)28.4 °F (8:27 am)
Humidity78.6 %100 % (6:48 pm)61 % (9:47 am)
Barometer29.79 in29.95 in (12:26 am)29.65 in (4:48 pm)
Wind Speed3.3 mph8.1 mph (10:27 am)
Weather ElementAverage
Visibility7.8 mi
Wind DirectionESE (116.6 °)

Weather ElementTotal
Precipitation---
Heating Degree Days25.8 (Base 65)
Averaged from 68 records on February 13, 2013
WEATHER CONDITIONS BREAKOUT
WIND DIRECTION BREAKOUT
WEATHER BY HOUR - FEBRUARY 13, 2013
[ °C ]   °F
Local TimeTemperatureDewpointHumidityBarometerVisibilityWind DirectionWind SpeedGust SpeedPrecipitationEventsConditions
12:26 AM41.0 °F32.0 °F70 %29.95 in10.0 miCalmClear
12:46 AM41.0 °F32.0 °F70 %29.94 in10.0 miEast (80°)3.5 mphClear
1:06 AM41.0 °F32.0 °F70 %29.94 in10.0 miCalmClear
1:26 AM41.0 °F32.0 °F70 %29.95 in10.0 miCalmClear
1:46 AM41.0 °F32.0 °F70 %29.94 in10.0 miCalmClear
2:06 AM39.2 °F32.0 °F75 %29.93 in10.0 miCalmClear
2:26 AM37.4 °F32.0 °F81 %29.91 in10.0 miNNE (30°)5.8 mphClear
2:46 AM37.4 °F32.0 °F81 %29.91 in10.0 miNNE (20°)3.5 mphClear
3:06 AM37.4 °F32.0 °F81 %29.91 in10.0 miNE (40°)3.5 mphClear
3:26 AM37.4 °F32.0 °F81 %29.90 in10.0 miENE (60°)3.5 mphClear
3:46 AM37.4 °F30.2 °F75 %29.89 in10.0 miCalmClear
4:06 AM37.4 °F30.2 °F75 %29.89 in10.0 miNE (50°)3.5 mphClear
4:26 AM37.4 °F30.2 °F75 %29.89 in10.0 miENE (60°)3.5 mphClear
4:46 AM37.4 °F30.2 °F75 %29.89 in10.0 miENE (70°)3.5 mphClear
5:07 AM37.4 °F30.2 °F75 %29.89 in10.0 miCalmClear
5:27 AM37.4 °F30.2 °F75 %29.88 in10.0 miENE (70°)3.5 mphMostly Cloudy
5:47 AM37.4 °F30.2 °F75 %29.88 in10.0 miCalmOvercast
6:07 AM37.4 °F30.2 °F75 %29.88 in10.0 miCalmOvercast
6:27 AM37.4 °F30.2 °F75 %29.87 in10.0 miENE (60°)4.6 mphOvercast
6:47 AM35.6 °F30.2 °F81 %29.87 in10.0 miNE (50°)3.5 mphMostly Cloudy
7:07 AM35.6 °F30.2 °F81 %29.87 in10.0 miENE (70°)4.6 mphOvercast
7:27 AM35.6 °F30.2 °F81 %29.87 in10.0 miENE (70°)3.5 mphScattered Clouds
7:47 AM35.6 °F30.2 °F81 %29.89 in10.0 miENE (70°)3.5 mphClear
8:27 AM37.4 °F28.4 °F70 %29.88 in10.0 miENE (70°)5.8 mphClear
8:47 AM37.4 °F28.4 °F70 %29.88 in10.0 miEast (80°)3.5 mphClear
9:07 AM37.4 °F28.4 °F70 %29.87 in10.0 miNE (50°)5.8 mphClear
9:27 AM37.4 °F28.4 °F70 %29.87 in10.0 miENE (70°)5.8 mphClear
9:47 AM41.0 °F28.4 °F61 %29.86 in10.0 miEast (90°)4.6 mphClear
10:07 AM41.0 °F28.4 °F61 %29.87 in10.0 miEast (80°)6.9 mphClear
10:27 AM41.0 °F30.2 °F65 %29.86 in10.0 miESE (110°)8.1 mphMostly Cloudy
11:07 AM41.0 °F30.2 °F65 %29.85 in10.0 miEast (90°)6.9 mphOvercast
11:27 AM41.0 °F32.0 °F70 %29.83 in10.0 miESE (110°)6.9 mphOvercast
11:47 AM42.8 °F32.0 °F66 %29.82 in10.0 miESE (120°)4.6 mphOvercast
12:07 PM42.8 °F32.0 °F66 %29.81 in10.0 miCalmOvercast
12:27 PM42.8 °F32.0 °F66 %29.79 in10.0 miENE (70°)5.8 mphOvercast
12:47 PM42.8 °F32.0 °F66 %29.78 in10.0 miESE (110°)5.8 mphOvercast
1:07 PM42.8 °F32.0 °F66 %29.76 in10.0 miEast (90°)5.8 mphOvercast
1:28 PM42.8 °F32.0 °F66 %29.72 in10.0 miEast (80°)5.8 mphOvercast
1:48 PM42.8 °F33.8 °F70 %29.71 in10.0 miEast (100°)6.9 mphOvercast
2:08 PM42.8 °F33.8 °F70 %29.71 in10.0 miEast (80°)4.6 mphOvercast
2:28 PM42.8 °F33.8 °F70 %29.69 in10.0 miCalmOvercast
2:48 PM42.8 °F33.8 °F70 %29.68 in10.0 miCalmOvercast
3:08 PM42.8 °F35.6 °F76 %29.67 in10.0 miCalmOvercast
3:28 PM42.8 °F35.6 °F76 %29.67 in10.0 miCalmOvercast
3:48 PM42.8 °F33.8 °F70 %29.67 in10.0 miNorth (360°)3.5 mphOvercast
4:08 PM41.0 °F35.6 °F81 %29.66 in2.0 miCalmOvercast
4:28 PM41.0 °F35.6 °F81 %29.66 in2.0 miCalm
4:48 PM39.2 °F35.6 °F87 %29.65 in1.8 miNorth (10°)3.5 mph
5:08 PM39.2 °F35.6 °F87 %29.66 in1.2 miNorth (360°)3.5 mphOvercast
5:28 PM37.4 °F35.6 °F93 %29.66 in1.0 miCalmOvercast
5:48 PM37.4 °F35.6 °F93 %29.66 in1.0 miNorth (350°)3.5 mphOvercast
6:08 PM37.4 °F35.6 °F93 %29.66 in2.0 miCalmOvercast
6:28 PM37.4 °F35.6 °F93 %29.66 in2.0 miNorth (350°)3.5 mphOvercast
6:48 PM37.4 °F37.4 °F100 %29.66 in2.5 miNNW (330°)3.5 mphOvercast
7:08 PM37.4 °F35.6 °F93 %29.66 in3.0 miNorth (350°)3.5 mphOvercast
7:28 PM37.4 °F35.6 °F93 %29.67 in3.0 miNW (320°)3.5 mphOvercast
7:48 PM37.4 °F35.6 °F93 %29.67 in3.0 miNorth (350°)3.5 mphOvercast
8:08 PM37.4 °F35.6 °F93 %29.67 in3.0 miCalmOvercast
8:28 PM37.4 °F35.6 °F93 %29.67 in4.0 miNorth (360°)3.5 mphOvercast
8:48 PM37.4 °F35.6 °F93 %29.68 in3.0 miNNW (340°)5.8 mphOvercast
9:08 PM37.4 °F35.6 °F93 %29.69 in4.0 miNorth (350°)6.9 mphOvercast
9:28 PM37.4 °F35.6 °F93 %29.70 in3.0 miNNW (330°)4.6 mphOvercast
9:48 PM37.4 °F35.6 °F93 %29.71 in3.0 miNNW (330°)4.6 mphOvercast
10:08 PM35.6 °F33.8 °F93 %29.72 in5.0 miCalmOvercast
10:29 PM35.6 °F33.8 °F93 %29.73 in7.0 miNW (310°)3.5 mphOvercast
11:09 PM35.6 °F33.8 °F93 %29.76 in10.0 miNW (310°)4.6 mphOvercast
11:29 PM35.6 °F32.0 °F87 %29.75 in7.0 miWNW (300°)3.5 mphOvercast
11:49 PM35.6 °F32.0 °F87 %29.76 in7.0 miNW (320°)5.8 mphOvercast
Hourly data recorded from K2W6, located miles away from Colonial Beach, Virginia







STORIES FROM OUR PARTNERS